PAL453 RPLL-RPMR

Flight info

Callsign PAL453
Flight time N/A
Altitude 39000
Route RDVXVERDE/06 VERDE A461 SAJ W3 IOO B472 COT W19 MELBY MELBY3P
Aircraft A333/H-SDE3GHIJ2J3J5M1RVWXY/LB2D1

Departure

Time N/A
Airport Ninoy Aquino International Airport (RPLL)

Arrival

Time 2026-04-22 05:13
Airport General Santos International Airport (RPMR)
Time Latitude Longitude Altitude Speed Heading
2026-04-22 04:48 7.42813 124.08818 37901 ft 457 kts 154°
2026-04-22 04:48 7.39997 124.10124 37429 ft 461 kts 154°
2026-04-22 04:48 7.37339 124.11358 36775 ft 464 kts 154°
2026-04-22 04:48 7.34594 124.12631 36169 ft 463 kts 154°
2026-04-22 04:49 7.31853 124.13903 35554 ft 463 kts 154°
2026-04-22 04:49 7.29024 124.15215 34924 ft 466 kts 154°
2026-04-22 04:49 7.26265 124.16492 34333 ft 468 kts 154°
2026-04-22 04:49 7.23473 124.17787 33726 ft 470 kts 154°
2026-04-22 04:50 7.20621 124.19109 33099 ft 473 kts 154°
2026-04-22 04:50 7.17754 124.20451 32416 ft 476 kts 153°
2026-04-22 04:50 7.15149 124.22160 31684 ft 476 kts 140°
2026-04-22 04:50 7.12732 124.24148 31028 ft 472 kts 140°
2026-04-22 04:51 7.10304 124.26122 30449 ft 465 kts 140°
2026-04-22 04:51 7.07920 124.28056 29929 ft 459 kts 140°
2026-04-22 04:51 7.05582 124.29951 29431 ft 455 kts 140°
2026-04-22 04:51 7.03304 124.31798 28931 ft 452 kts 140°
2026-04-22 04:52 7.00972 124.33688 28392 ft 448 kts 140°
2026-04-22 04:52 6.98665 124.35555 27835 ft 445 kts 140°
2026-04-22 04:52 6.96389 124.37397 27280 ft 441 kts 140°
2026-04-22 04:52 6.94264 124.39119 26794 ft 436 kts 140°
2026-04-22 04:53 6.92008 124.40945 26320 ft 433 kts 140°
2026-04-22 04:53 6.89822 124.42714 25870 ft 429 kts 140°
2026-04-22 04:53 6.87586 124.44526 25413 ft 426 kts 140°
2026-04-22 04:53 6.85444 124.46259 24972 ft 425 kts 140°
2026-04-22 04:54 6.83306 124.47989 24494 ft 421 kts 139°
2026-04-22 04:54 6.81144 124.49739 23995 ft 418 kts 139°
2026-04-22 04:54 6.78988 124.51482 23456 ft 415 kts 139°
2026-04-22 04:54 6.76853 124.53210 22938 ft 411 kts 139°
2026-04-22 04:55 6.74769 124.54896 22415 ft 407 kts 139°
2026-04-22 04:55 6.72700 124.56570 21913 ft 404 kts 139°
2026-04-22 04:55 6.70592 124.58276 21432 ft 403 kts 139°
2026-04-22 04:55 6.68536 124.59938 20954 ft 400 kts 139°
2026-04-22 04:56 6.66455 124.61609 20465 ft 398 kts 140°
2026-04-22 04:56 6.64381 124.63178 20017 ft 397 kts 141°
2026-04-22 04:56 6.62284 124.64770 19574 ft 395 kts 141°
2026-04-22 04:56 6.60249 124.66311 19112 ft 392 kts 141°
2026-04-22 04:57 6.58174 124.67886 18659 ft 390 kts 142°
2026-04-22 04:57 6.56137 124.69431 18194 ft 388 kts 142°
2026-04-22 04:57 6.54010 124.71044 17730 ft 386 kts 142°
2026-04-22 04:57 6.51915 124.72634 17238 ft 384 kts 142°
2026-04-22 04:58 6.49890 124.74170 16772 ft 383 kts 142°
2026-04-22 04:58 6.47864 124.75705 16325 ft 381 kts 142°
2026-04-22 04:58 6.45727 124.77325 15815 ft 377 kts 142°
2026-04-22 04:58 6.43698 124.78864 15335 ft 375 kts 142°
2026-04-22 04:59 6.41601 124.80456 14843 ft 371 kts 142°
2026-04-22 04:59 6.39613 124.81969 14348 ft 367 kts 142°
2026-04-22 04:59 6.37886 124.83762 13839 ft 362 kts 125°
2026-04-22 04:59 6.36460 124.85850 13353 ft 358 kts 124°
2026-04-22 05:00 6.35069 124.87860 12862 ft 357 kts 125°
2026-04-22 05:00 6.33676 124.89859 12357 ft 359 kts 124°
2026-04-22 05:00 6.32276 124.91874 11895 ft 356 kts 124°
2026-04-22 05:00 6.30869 124.93896 11357 ft 351 kts 125°
2026-04-22 05:01 6.29364 124.95743 10938 ft 346 kts 130°
2026-04-22 05:01 6.27863 124.97524 10472 ft 340 kts 129°
2026-04-22 05:01 6.26381 124.99286 10254 ft 329 kts 129°
2026-04-22 05:01 6.24942 125.00999 10196 ft 315 kts 129°
2026-04-22 05:02 6.23566 125.02637 10086 ft 303 kts 129°
2026-04-22 05:02 6.22217 125.04242 9987 ft 291 kts 129°
2026-04-22 05:02 6.20926 125.05777 9723 ft 288 kts 128°
2026-04-22 05:02 6.19643 125.07304 9425 ft 286 kts 129°
2026-04-22 05:03 6.18353 125.08839 9136 ft 284 kts 128°
2026-04-22 05:03 6.17087 125.10344 8856 ft 281 kts 128°
2026-04-22 05:03 6.15839 125.11829 8585 ft 279 kts 128°
2026-04-22 05:03 6.14579 125.13327 8312 ft 276 kts 128°
2026-04-22 05:04 6.13348 125.14790 8050 ft 274 kts 128°
2026-04-22 05:04 6.12142 125.16225 7795 ft 271 kts 128°
2026-04-22 05:04 6.10905 125.17614 7533 ft 270 kts 137°
2026-04-22 05:04 6.09271 125.18471 7280 ft 272 kts 164°
2026-04-22 05:05 6.07474 125.18697 7054 ft 271 kts 172°
2026-04-22 05:05 6.05650 125.18909 6800 ft 269 kts 171°
2026-04-22 05:05 6.03853 125.19125 6553 ft 268 kts 171°
2026-04-22 05:05 6.02066 125.19343 6306 ft 267 kts 171°
2026-04-22 05:06 6.00255 125.19563 6050 ft 267 kts 171°
2026-04-22 05:06 5.98446 125.19783 5832 ft 264 kts 171°
2026-04-22 05:06 5.96665 125.20002 5530 ft 263 kts 171°
2026-04-22 05:06 5.94864 125.20221 5288 ft 258 kts 171°
2026-04-22 05:07 5.93091 125.20438 5006 ft 251 kts 171°
2026-04-22 05:07 5.91390 125.20637 4708 ft 245 kts 174°
2026-04-22 05:07 5.89741 125.20345 4424 ft 241 kts 206°
2026-04-22 05:07 5.88554 125.19337 4306 ft 227 kts 236°
2026-04-22 05:08 5.88036 125.17892 3943 ft 224 kts 265°
2026-04-22 05:08 5.87829 125.16341 3579 ft 225 kts 264°
2026-04-22 05:08 5.87620 125.14786 3229 ft 226 kts 264°
2026-04-22 05:08 5.87461 125.13230 2839 ft 227 kts 274°
2026-04-22 05:09 5.87956 125.11807 2472 ft 218 kts 313°
2026-04-22 05:09 5.89164 125.11098 2384 ft 192 kts 359°
2026-04-22 05:09 5.90471 125.11121 2428 ft 186 kts
2026-04-22 05:09 5.91730 125.11091 2437 ft 182 kts 360°
2026-04-22 05:10 5.92925 125.11031 2399 ft 168 kts
2026-04-22 05:10 5.94075 125.10983 2361 ft 160 kts
2026-04-22 05:10 5.95177 125.10925 2414 ft 152 kts 358°
2026-04-22 05:10 5.96192 125.10792 2182 ft 144 kts 356°
2026-04-22 05:11 5.97173 125.10677 1995 ft 142 kts 356°
2026-04-22 05:11 5.98167 125.10554 1801 ft 143 kts 356°
2026-04-22 05:11 5.99173 125.10431 1600 ft 143 kts 356°
2026-04-22 05:11 6.00172 125.10310 1388 ft 143 kts 356°
2026-04-22 05:12 6.01170 125.10188 1180 ft 143 kts 356°
2026-04-22 05:12 6.02183 125.10064 964 ft 144 kts 356°
2026-04-22 05:12 6.03187 125.09940 752 ft 143 kts 356°
2026-04-22 05:12 6.04175 125.09825 552 ft 143 kts 355°
2026-04-22 05:13 6.05135 125.09704 492 ft 120 kts 351°
2026-04-22 05:13 6.05776 125.09621 511 ft 62 kts 353°
2026-04-22 05:13 6.06125 125.09579 517 ft 48 kts 353°